Location: ???
(60.6398°N, 46.9067°E)
Time: 17:30:33
(UTC+00:00)

SeaSat 1 - Pass Details

Date: 08 December 2019
Orbit: 744 x 748 km, 108.0° (Epoch: 21 January)

Event Time Altitude Azimuth Distance (km) Brightness Sun altitude
Exits shadow 16:48:20 30° 262° (W) 1,312 4.1 -34.7°
Drops below altitude 10° 16:52:06 10° 310° (NW) 2,275 5.6 -35.2°
Sets 16:54:38 0° 321° (NW) 3,204 6.4 -35.5°
